Flag for Turkey Weather past 2 weeks in Samsun, Turkey

Now
75 °F

Broken clouds.


Feels Like: 77 °F
Forecast: 57 / 78 °F
Wind: 8 mph from Northwest

Location: Samsun / Carsamba

Current Time: Jun 30, 2015 at 12:03:44 PM

Latest Report: Jun 30, 2015 at 10:50 AM


Visibility: N/A

Pressure: 30.01 "Hg

Humidity: 61%

Dew point: 61 °F

Location of SamsunLocation

Historic Weather in Samsun — Graph

°F

Samsun temperature yesterday

Maximum temperature yesterday: 79 °F (at 11:50 AM)
Minimum temperature yesterday: 61 °F (at 4:50 AM)
Average temperature yesterday: 70 °F

Past Weeks' High & Low Weather Summary

 TemperatureHumidityPressure
High81 °F (Jun 16, 11:50 AM)100% (Jun 19, 3:50 AM)30.01 "Hg (Jun 19, 3:50 AM)
Low55 °F (Jun 17, 3:50 AM)34% (Jun 29, 11:50 AM)29.59 "Hg (Jun 19, 5:50 AM)
Average70 °F78%29.82 "Hg
* Reported Jun 15 10:50 AM — Jun 30 10:50 AM, Samsun, Weather by CustomWeather, © 2015

Note: Actual official high and low records may vary slightly from our data, if they occured in-between our weather recording intervals... More about our weather records

Advertising

Samsun weather history for previous 24 hours

 ConditionsComfort  
Time TempWeatherWind HumidityBarometerVisibility
10:50 AM
Tue, Jun 30
75 °FBroken clouds.8 mph61%30.01 "HgN/A
9:50 AM75 °FBroken clouds.7 mph65%29.98 "HgN/A
8:50 AM72 °FBroken clouds.8 mph69%29.98 "HgN/A
7:50 AM68 °FPartly sunny.2 mph83%29.98 "HgN/A
6:50 AM63 °FScattered clouds.1 mph88%29.98 "HgN/A
5:50 AM57 °FPassing clouds.2 mph94%29.98 "HgN/A
4:50 AM57 °FClear.3 mph88%29.98 "Hg10 mi
3:50 AM57 °FClear.5 mph94%29.98 "Hg10 mi
2:50 AM57 °FClear.3 mph94%29.98 "Hg10 mi
1:50 AM57 °FClear.2 mph100%29.98 "Hg10 mi
12:50 AM59 °FClear.5 mph88%29.98 "Hg10 mi
11:50 PM
Mon, Jun 29
61 °FClear.No wind88%30.01 "Hg10 mi
10:50 PM63 °FClear.1 mph88%30.01 "Hg10 mi
9:50 PM63 °FPassing clouds.2 mph88%30.01 "HgN/A
8:50 PM66 °FPassing clouds.1 mph78%30.01 "HgN/A
7:50 PM72 °FPassing clouds.2 mph61%30.01 "HgN/A
6:50 PM73 °FPassing clouds.5 mph57%29.98 "HgN/A
5:50 PM75 °FPassing clouds.6 mph54%29.98 "HgN/A
4:50 PM77 °FPassing clouds.6 mph47%29.98 "HgN/A
3:50 PM79 °FPassing clouds.7 mph42%29.98 "HgN/A
2:50 PM79 °FPassing clouds.7 mph45%29.95 "HgN/A
1:50 PM79 °FPassing clouds.9 mph45%29.95 "HgN/A
12:50 PM77 °FPassing clouds.8 mph44%29.95 "HgN/A
Weather by CustomWeather, © 2015

See weather overviewHow to use our weather pages